Regional Weather Roundup
Issued by NWS Columbia, SC

Home | Current Version | Previous Version | Text Only | Print | Product List | Glossary On
Versions: 1 2 3 4 5 6 7 8 9 10 11 12 13 14 15 16 17 18 19 20 21 22 23 24 25 26 27
000
ASUS42 KCAE 230010
RWRCAE
REGIONAL WEATHER ROUNDUP
NATIONAL WEATHER SERVICE COLUMBIA SC
800 PM EDT WED MAR 22 2017

NOTE: "FAIR" INDICATES FEW OR NO CLOUDS BELOW 12,000 FEET WITH NO
SIGNIFICANT WEATHER AND/OR OBSTRUCTIONS TO VISIBILITY.

NOT ALL STATIONS ARE QUALITY CONTROLLED BY THE NATIONAL
WEATHER SERVICE. USE DATA WITH CAUTION...ESPECIALLY
DEWPOINT OBSERVATIONS.

SCZ001>056-GAZ040-063>065-077-230100-
...UPSTATE SOUTH CAROLINA...

CITY           SKY/WX    TMP DP  RH WIND       PRES   REMARKS
ANDERSON       CLEAR     62  29  28 NE7       30.20R
6HR MIN TEMP:  62; 6HR MAX TEMP:  69;

LIBERTY        CLEAR     61  26  25 E6        30.20S
6HR MIN TEMP:  61; 6HR MAX TEMP:  68;

SPARTANBURG    CLEAR     57  23  26 E6        30.22R
CLEMSON        CLEAR     64  24  21 E5        30.21R
6HR MIN TEMP:  64; 6HR MAX TEMP:  70;

GREENVILLE     PTCLDY    62  32  32 E5        30.22R
6HR MIN TEMP:  62; 6HR MAX TEMP:  68;

GREENWOOD      PTCLDY    60  27  28 E6        30.22R
6HR MIN TEMP:  60; 6HR MAX TEMP:  69;

GREER          CLEAR     59  29  31 E7        30.21R
6HR MIN TEMP:  59; 6HR MAX TEMP:  67;

ROCK HILL      CLEAR     55  23  28 CALM      30.25R
6HR MIN TEMP:  55; 6HR MAX TEMP:  62;

CHESTER        MOCLDY    52  28  40 CALM      30.25R
LAURENS        CLEAR     59  32  36 E6        30.22R


...CENTRAL SOUTH CAROLINA...

CITY           SKY/WX    TMP DP  RH WIND       PRES   REMARKS
COLUMBIA APT   CLOUDY    63  27  25 NE6       30.22R
6HR MIN TEMP:  63; 6HR MAX TEMP:  73;

COLUMBIA OWENS CLOUDY    62  26  25 NE3       30.23R
6HR MIN TEMP:  62; 6HR MAX TEMP:  73;

MCENTIRE ANGB  CLOUDY    58  29  32 N5        30.23R
6HR MIN TEMP:  58; 6HR MAX TEMP:  71; 6HR PCP: TRACE;

ORANGEBURG     CLOUDY    62  30  29 NE8       30.20R
6HR MIN TEMP:  62; 6HR MAX TEMP:  73;

SUMTER SHAW    MOCLDY    58  28  31 N12       30.21R
6HR MIN TEMP:  58; 6HR MAX TEMP:  71; 6HR PCP: TRACE;

NEWBERRY       MOCLDY    57  30  35 E6        30.25R
AIKEN          FAIR      59  39  47 NE8       30.23R
BARNWELL       FAIR      66  43  42 NE9       30.19R
MANNING        FAIR      59  28  31 NE6       30.22R
CAMDEN         FAIR      55  30  38 CALM      30.25R
LANCASTER      PTCLDY    55  23  28 N3        30.25R
WINNSBORO      CLOUDY    55  28  35 NE3       30.23R


...EASTERN AND COASTAL SOUTH CAROLINA...

CITY           SKY/WX    TMP DP  RH WIND       PRES   REMARKS
MYRTLE BEACH   MOCLDY    57  48  72 E15G21    30.23R
N MYRTLE BCH   CLOUDY    56  47  71 E13G24    30.23R
6HR MIN TEMP:  56; 6HR MAX TEMP:  70;

CONWAY         MOCLDY    57  46  67 SE3       30.23R
MARION         FAIR      57  34  41 N5        30.22R
HARTSVILLE     FAIR      54  30  40 N5        30.24R
FLORENCE       MOCLDY    55  27  34 N7        30.23R
6HR MIN TEMP:  55; 6HR MAX TEMP:  69;

DARLINGTON     PTCLDY    54  32  43 NW5       30.25R
6HR MIN TEMP:  54; 6HR MAX TEMP:  67;

CHARLESTON APT PTCLDY    61  50  67 E10G18    30.20R
6HR MIN TEMP:  61; 6HR MAX TEMP:  77;

MOUNT PLEASANT LGT RAIN  61  52  72 CALM      30.20R
WALTERBORO     CLEAR     64  41  42 NE9       30.19R
BEAUFORT       CLOUDY    62  54  74 E14       30.18R
6HR MIN TEMP:  62; 6HR MAX TEMP:  80;



...EASTERN GEORGIA...

CITY           SKY/WX    TMP DP  RH WIND       PRES   REMARKS
AUGUSTA BUSH F CLOUDY    66  42  41 NE8       30.17R
6HR MIN TEMP:  66; 6HR MAX TEMP:  77;

AUGUSTA DANIEL CLOUDY    67  39  35 NE10      30.19R
6HR MIN TEMP:  67; 6HR MAX TEMP:  74;

THOMSON        CLOUDY    65  44  47 MISG      30.23R
6HR MIN TEMP:  65; 6HR MAX TEMP:  72;

WASHINGTON     FAIR      64  46  52 E3        30.18R
CLAXTON        FAIR      72  52  50 NE9       30.13R
6HR MIN TEMP:  72; 6HR MAX TEMP:  80;

SYLVANIA       MOCLDY   N/A N/A N/A E5        30.16R
STATESBORO     CLOUDY    71  50  46 NE3       30.14R
6HR MIN TEMP:  71; 6HR MAX TEMP:  79;

SAVANNAH       PTCLDY    64  51  62 E16       30.17R
6HR MIN TEMP:  64; 6HR MAX TEMP:  82;



...SOUTHERN NORTH CAROLINA...

CITY           SKY/WX    TMP DP  RH WIND       PRES   REMARKS
CHARLOTTE      CLOUDY    56  19  23 NE6       30.26R
6HR MIN TEMP:  54; 6HR MAX TEMP:  62;

MONROE         CLEAR     55  20  25 NE5       30.24R
6HR MIN TEMP:  54; 6HR MAX TEMP:  61;

WADESBORO      PTCLDY    55  25  31 CALM      30.25R
6HR MIN TEMP:  55; 6HR MAX TEMP:  63;

ROCKINGHAM     CLEAR     56  21  25 N5        30.25R
6HR MIN TEMP:  56; 6HR MAX TEMP:  63;

RUTHERFORDTON  CLEAR     56  28  33 E5        30.25R
6HR MIN TEMP:  56; 6HR MAX TEMP:  65;

ASHEVILLE      PTCLDY    52  16  24 N13       30.25R
6HR MIN TEMP:  52; 6HR MAX TEMP:  57;


$$




USA.gov is the U.S. government's official web portal to all federal, state and local government web resources and services.